<?xml version="1.0"?>
<gpx xmlns="http://www.topografix.com/GPX/1/1" xmlns:xsi="http://www.w3.org/2001/XMLSchema-instance" version="1.1" creator="GPX RubyGem 1.0.0 -- http://dougfales.github.io/gpx/" xsi:schemaLocation="http://www.topografix.com/GPX/1/1 http://www.topografix.com/GPX/1/1/gpx.xsd">
  <metadata>
    <name/>
    <time>2026-05-08T08:41:56+00:00</time>
    <bound minlat="90.0" minlon="180.0" maxlat="-90.0" maxlon="-180.0"/>
  </metadata>
  <trk>
    <name/>
    <trkseg>
      <trkpt lat="45.272593" lon="5.875601">
        <time>1970-01-01T00:00:00+00:00</time>
        <ele>252.0</ele>
      </trkpt>
      <trkpt lat="45.272821" lon="5.875768">
        <time>1970-01-01T00:00:00+00:00</time>
        <ele>252.0</ele>
      </trkpt>
      <trkpt lat="45.272844" lon="5.87579">
        <time>1970-01-01T00:00:00+00:00</time>
        <ele>252.0</ele>
      </trkpt>
      <trkpt lat="45.272809" lon="5.875814">
        <time>1970-01-01T00:00:00+00:00</time>
        <ele>252.0</ele>
      </trkpt>
      <trkpt lat="45.272645" lon="5.876025">
        <time>1970-01-01T00:00:00+00:00</time>
        <ele>252.0</ele>
      </trkpt>
      <trkpt lat="45.272019" lon="5.877488">
        <time>1970-01-01T00:00:00+00:00</time>
        <ele>248.0</ele>
      </trkpt>
      <trkpt lat="45.271943" lon="5.877293">
        <time>1970-01-01T00:00:00+00:00</time>
        <ele>249.0</ele>
      </trkpt>
      <trkpt lat="45.271254" lon="5.876692">
        <time>1970-01-01T00:00:00+00:00</time>
        <ele>253.0</ele>
      </trkpt>
      <trkpt lat="45.270114" lon="5.875727">
        <time>1970-01-01T00:00:00+00:00</time>
        <ele>255.0</ele>
      </trkpt>
      <trkpt lat="45.270046" lon="5.875609">
        <time>1970-01-01T00:00:00+00:00</time>
        <ele>254.0</ele>
      </trkpt>
      <trkpt lat="45.269903" lon="5.87518">
        <time>1970-01-01T00:00:00+00:00</time>
        <ele>253.0</ele>
      </trkpt>
      <trkpt lat="45.269918" lon="5.874922">
        <time>1970-01-01T00:00:00+00:00</time>
        <ele>254.0</ele>
      </trkpt>
      <trkpt lat="45.269609" lon="5.875168">
        <time>1970-01-01T00:00:00+00:00</time>
        <ele>253.0</ele>
      </trkpt>
      <trkpt lat="45.269609" lon="5.875168">
        <time>1970-01-01T00:00:00+00:00</time>
        <ele>253.0</ele>
      </trkpt>
      <trkpt lat="45.269918" lon="5.874922">
        <time>1970-01-01T00:00:00+00:00</time>
        <ele>254.0</ele>
      </trkpt>
      <trkpt lat="45.270084" lon="5.874744">
        <time>1970-01-01T00:00:00+00:00</time>
        <ele>254.0</ele>
      </trkpt>
      <trkpt lat="45.270346" lon="5.87439">
        <time>1970-01-01T00:00:00+00:00</time>
        <ele>256.0</ele>
      </trkpt>
      <trkpt lat="45.270682" lon="5.874009">
        <time>1970-01-01T00:00:00+00:00</time>
        <ele>257.0</ele>
      </trkpt>
      <trkpt lat="45.271367" lon="5.87317">
        <time>1970-01-01T00:00:00+00:00</time>
        <ele>260.0</ele>
      </trkpt>
      <trkpt lat="45.271402" lon="5.873166">
        <time>1970-01-01T00:00:00+00:00</time>
        <ele>260.0</ele>
      </trkpt>
      <trkpt lat="45.271849" lon="5.873904">
        <time>1970-01-01T00:00:00+00:00</time>
        <ele>258.0</ele>
      </trkpt>
      <trkpt lat="45.272036" lon="5.87417">
        <time>1970-01-01T00:00:00+00:00</time>
        <ele>257.0</ele>
      </trkpt>
      <trkpt lat="45.272172" lon="5.874364">
        <time>1970-01-01T00:00:00+00:00</time>
        <ele>256.0</ele>
      </trkpt>
      <trkpt lat="45.272315" lon="5.874473">
        <time>1970-01-01T00:00:00+00:00</time>
        <ele>256.0</ele>
      </trkpt>
      <trkpt lat="45.273306" lon="5.874993">
        <time>1970-01-01T00:00:00+00:00</time>
        <ele>255.0</ele>
      </trkpt>
      <trkpt lat="45.273208" lon="5.875482">
        <time>1970-01-01T00:00:00+00:00</time>
        <ele>254.0</ele>
      </trkpt>
      <trkpt lat="45.273094" lon="5.875619">
        <time>1970-01-01T00:00:00+00:00</time>
        <ele>253.0</ele>
      </trkpt>
      <trkpt lat="45.272844" lon="5.87579">
        <time>1970-01-01T00:00:00+00:00</time>
        <ele>252.0</ele>
      </trkpt>
      <trkpt lat="45.272821" lon="5.875768">
        <time>1970-01-01T00:00:00+00:00</time>
        <ele>252.0</ele>
      </trkpt>
      <trkpt lat="45.272593" lon="5.875601">
        <time>1970-01-01T00:00:00+00:00</time>
        <ele>252.0</ele>
      </trkpt>
    </trkseg>
  </trk>
</gpx>
